EW9032 Weather Reports


Display with metric or nautical units.
time (UTC)temp
F
wind
direction
speed
MPH
gust
MPH
rain 1hr
in
rain 24hr
in
rain mn
in
humidity
%
barometer
mb
20260504150204 54 29 12.0 17.0 0.00 0.13 0.00 49 1005.9
20260504141204 52 39 12.0 18.0 0.00 0.13 0.00 63 1005.5
20260504140704 52 42 9.0 16.0 0.00 0.13 0.00 65 1005.5
20260504140204 52 32 8.0 18.0 0.00 0.13 0.00 64 1005.6
20260504130704 52 280 3.0 7.0 0.00 0.13 0.00 59 1004.3
20260504130204 51 256 5.0 14.0 0.00 0.13 0.00 58 1003.9
20260504120203 50 201 5.0 9.0 0.00 0.13 0.00 60 1002.1
20260504110203 46 217 5.0 5.0 0.00 0.13 0.00 71 1002.2
20260504081706 48 225 5.0 6.0 0.00 0.13 0.00 74 1003.0
20260504081205 48 226 5.0 7.0 0.00 0.13 0.00 75 1003.0
20260504080705 48 232 5.0 6.0 0.00 0.13 0.00 76 1003.0
20260504080205 48 232 4.0 5.0 0.00 0.13 0.00 76 1003.1
20260504060205 52 212 1.0 2.0 0.00 0.13 0.00 70 1003.6
20260504045706 48 188 1.0 3.0 0.00 0.13 0.13 79 1004.1
20260504045205 48 188 1.0 2.0 0.00 0.13 0.13 80 1004.0
20260504044706 48 188 0.0 1.0 0.00 0.13 0.13 80 1004.1
20260504044205 48 188 1.0 2.0 0.00 0.13 0.13 81 1004.2
20260504043705 48 188 1.0 2.0 0.00 0.13 0.13 81 1004.2
20260504042705 49 188 1.0 2.0 0.00 0.13 0.13 81 1004.2
20260504042205 49 188 0.0 1.0 0.00 0.13 0.13 81 1004.3
20260504041705 49 188 0.0 1.0 0.00 0.13 0.13 81 1004.3
20260504041206 49 188 0.0 2.0 0.00 0.13 0.13 81 1004.3
20260504040705 49 188 2.0 3.0 0.00 0.13 0.13 81 1004.4
20260504040206 49 188 1.0 2.0 0.00 0.13 0.13 81 1004.3
20260504035705 50 188 0.0 1.0 0.00 0.13 0.13 81 1004.3
20260504034705 50 188 0.0 1.0 0.00 0.13 0.13 80 1004.5
20260504034205 50 188 0.0 1.0 0.00 0.13 0.13 80 1004.4
20260504033205 51 188 0.0 1.0 0.00 0.13 0.13 78 1004.4
20260504032705 51 188 0.0 2.0 0.00 0.13 0.13 77 1004.5
20260504032205 52 188 1.0 2.0 0.00 0.13 0.13 76 1004.5
20260504031705 52 188 1.0 2.0 0.00 0.13 0.13 74 1004.5
20260504031205 53 188 0.0 1.0 0.00 0.13 0.13 73 1004.5
20260504030205 54 187 1.0 3.0 0.00 0.13 0.13 70 1004.5
20260504025705 54 186 1.0 3.0 0.00 0.13 0.13 69 1004.6
20260504025205 54 186 2.0 3.0 0.00 0.13 0.13 68 1004.6
20260504024206 55 186 1.0 3.0 0.00 0.13 0.13 69 1004.5
20260504023205 55 186 3.0 6.0 0.00 0.13 0.13 68 1004.6
20260504022705 55 164 4.0 6.0 0.00 0.13 0.13 69 1004.5
20260504022205 55 132 1.0 3.0 0.00 0.13 0.13 68 1004.5
20260504021705 55 132 1.0 3.0 0.00 0.13 0.13 68 1004.5
20260504021205 55 132 0.0 1.0 0.00 0.13 0.13 71 1004.4
20260504020705 56 132 1.0 1.0 0.00 0.13 0.13 69 1004.4
20260504020205 56 132 1.0 2.0 0.00 0.13 0.13 68 1004.4
20260504015705 56 132 2.0 3.0 0.00 0.13 0.13 68 1004.4
20260504015205 56 132 1.0 3.0 0.00 0.13 0.13 68 1004.4
20260504014705 56 130 2.0 3.0 0.00 0.13 0.13 68 1004.3
20260504014204 57 130 1.0 5.0 0.00 0.13 0.13 69 1004.4
20260504013705 57 130 2.0 5.0 0.00 0.13 0.13 69 1004.4
20260504013205 57 130 2.0 3.0 0.00 0.13 0.13 70 1004.4
20260504012704 57 130 2.0 3.0 0.00 0.13 0.13 70 1004.5
20260504012205 57 130 2.0 7.0 0.00 0.13 0.13 72 1004.6
20260504011705 56 140 2.0 3.0 0.00 0.13 0.13 73 1004.7
20260504011205 56 90 3.0 7.0 0.00 0.13 0.13 76 1004.7
20260504010705 56 89 5.0 9.0 0.00 0.13 0.13 77 1004.7
20260504010205 56 85 8.0 12.0 0.00 0.13 0.13 78 1004.6
20260504005205 56 84 9.0 13.0 0.00 0.13 0.13 78 1004.6
20260504004204 56 86 4.0 12.0 0.00 0.13 0.13 78 1005.2
20260504003705 56 83 7.0 12.0 0.00 0.13 0.13 77 1005.4
20260504003205 57 76 5.0 12.0 0.00 0.13 0.13 74 1005.7
20260504002705 58 88 7.0 13.0 0.00 0.13 0.13 70 1005.9
20260504001206 58 78 2.0 3.0 0.02 0.13 0.13 72 1006.0
20260504000705 58 78 2.0 7.0 0.02 0.13 0.13 71 1006.1
20260504000205 57 25 2.0 6.0 0.03 0.13 0.13 72 1006.2
20260503235705 56 0 5.0 10.0 0.07 0.13 0.13 74 1006.2
20260503234704 55 20 3.0 9.0 0.13 0.13 0.13 77 1006.2
20260503234204 55 8 5.0 10.0 0.13 0.13 0.13 76 1006.3
20260503233705 54 31 6.0 12.0 0.13 0.13 0.13 76 1006.2
20260503232704 54 17 10.0 20.0 0.13 0.13 0.13 75 1007.6
20260503231705 55 298 11.0 30.0 0.12 0.12 0.12 75 1008.2
20260503231204 55 275 14.0 31.0 0.11 0.11 0.11 75 1007.9
20260503230204 54 289 18.0 40.0 0.10 0.10 0.10 75 1007.1
20260503225704 57 287 18.0 33.0 0.06 0.06 0.06 68 1006.6
20260503224704 67 318 17.0 39.0 0.00 0.00 0.00 38 1006.0
20260503224205 72 229 6.0 10.0 0.00 0.00 0.00 26 1004.9
20260503223705 73 25 2.0 6.0 0.00 0.00 0.00 26 1003.8
20260503223204 73 326 2.0 6.0 0.00 0.00 0.00 26 1003.6
20260503222704 73 291 2.0 3.0 0.00 0.00 0.00 24 1003.7
20260503222205 73 276 1.0 3.0 0.00 0.00 0.00 24 1003.8
20260503221705 73 276 1.0 7.0 0.00 0.00 0.00 25 1003.9
20260503221205 73 296 2.0 7.0 0.00 0.00 0.00 25 1004.0
20260503220205 74 123 1.0 5.0 0.00 0.00 0.00 24 1004.2
20260503215705 75 150 3.0 12.0 0.00 0.00 0.00 24 1004.3
20260503215205 74 38 2.0 5.0 0.00 0.00 0.00 25 1004.4
20260503214705 74 37 3.0 9.0 0.00 0.00 0.00 25 1004.5
20260503213204 75 53 5.0 9.0 0.00 0.00 0.00 25 1004.9
20260503212705 74 162 2.0 5.0 0.00 0.00 0.00 25 1005.0
20260503212205 74 188 3.0 8.0 0.00 0.00 0.00 25 1005.2
20260503211704 74 215 1.0 8.0 0.00 0.00 0.00 25 1005.3
20260503211205 74 202 3.0 9.0 0.00 0.00 0.00 25 1005.4
20260503210704 74 187 3.0 6.0 0.00 0.00 0.00 26 1005.5
20260503205705 73 141 1.0 9.0 0.00 0.00 0.00 26 1005.8
20260503205205 73 138 3.0 6.0 0.00 0.00 0.00 27 1005.9
20260503204704 73 198 5.0 9.0 0.00 0.00 0.00 26 1006.1
20260503204205 73 273 3.0 12.0 0.00 0.00 0.00 26 1006.3
20260503203205 72 37 5.0 7.0 0.00 0.00 0.00 27 1006.5
20260503202705 72 53 3.0 5.0 0.00 0.00 0.00 27 1006.7
20260503202205 72 251 3.0 7.0 0.00 0.00 0.00 26 1006.8
20260503201704 72 288 3.0 12.0 0.00 0.00 0.00 26 1006.9
20260503201204 72 274 3.0 15.0 0.00 0.00 0.00 27 1006.9
20260503200705 72 288 6.0 10.0 0.00 0.00 0.00 26 1006.9
20260503200204 71 312 2.0 9.0 0.00 0.00 0.00 27 1007.0
20260503195705 71 16 3.0 5.0 0.00 0.00 0.00 28 1007.2
20260503195204 71 322 2.0 7.0 0.00 0.00 0.00 28 1007.3
20260503194705 70 309 3.0 12.0 0.00 0.00 0.00 28 1007.5
20260503194205 70 258 4.0 10.0 0.00 0.00 0.00 29 1007.5
20260503193704 70 212 5.0 12.0 0.00 0.00 0.00 28 1007.6
20260503193204 70 210 7.0 13.0 0.00 0.00 0.00 28 1007.7
20260503192705 70 201 7.0 12.0 0.00 0.00 0.00 28 1007.7
20260503192204 71 264 7.0 17.0 0.00 0.00 0.00 28 1007.8
20260503191704 71 277 5.0 9.0 0.00 0.00 0.00 28 1007.9
20260503191204 71 284 4.0 15.0 0.00 0.00 0.00 28 1008.0
20260503190705 71 262 5.0 12.0 0.00 0.00 0.00 28 1008.1
20260503190204 71 311 5.0 10.0 0.00 0.00 0.00 29 1008.1
20260503185204 70 325 2.0 9.0 0.00 0.00 0.00 29 1008.4
20260503184204 69 320 2.0 7.0 0.00 0.00 0.00 31 1008.7
20260503183705 69 298 3.0 8.0 0.00 0.00 0.00 30 1008.9
20260503183205 68 278 5.0 12.0 0.00 0.00 0.00 30 1009.0
20260503182704 68 209 3.0 7.0 0.00 0.00 0.00 31 1009.0
20260503182204 69 256 5.0 12.0 0.00 0.00 0.00 31 1009.2
20260503181705 69 300 6.0 12.0 0.00 0.00 0.00 30 1009.1
20260503181204 70 348 3.0 5.0 0.00 0.00 0.00 29 1009.2
20260503180705 69 313 3.0 7.0 0.00 0.00 0.00 29 1009.3
20260503180205 69 279 4.0 8.0 0.00 0.00 0.00 30 1009.4
20260503175204 69 309 5.0 9.0 0.00 0.00 0.00 30 1009.5
20260503174704 69 284 2.0 10.0 0.00 0.00 0.00 31 1009.5
20260503173704 67 221 2.0 7.0 0.00 0.00 0.00 32 1009.7
20260503173204 67 262 3.0 9.0 0.00 0.00 0.00 33 1009.8
20260503172705 67 259 6.0 10.0 0.00 0.00 0.00 33 1009.9
20260503172204 67 234 5.0 7.0 0.00 0.00 0.00 33 1009.9
20260503171704 67 240 2.0 7.0 0.00 0.00 0.00 33 1010.0
20260503171204 67 269 2.0 7.0 0.00 0.00 0.00 33 1010.0
20260503170705 66 274 5.0 9.0 0.00 0.00 0.00 34 1010.0
20260503170204 66 204 4.0 7.0 0.00 0.00 0.00 34 1010.1
20260503160204 65 333 4.0 9.0 0.00 0.00 0.00 34 1010.6
20260503150704 61 253 1.0 5.0 0.00 0.00 0.00 44 1011.2